Time,TemperatureF,DewpointF,PressureIn,WindDirection,WindDirectionDegrees,WindSpeedMPH,WindSpeedGustMPH,Humidity,HourlyPrecipIn,Conditions,Clouds,dailyrainin,SoftwareType,DateUTC
2013-02-01 00:00:00,30.0,11.0,29.83,West,264,12.0,28.0,44,-99.99,,,-99.99,,2013-02-01 05:00:00,
2013-02-01 00:22:00,30.0,11.0,29.83,West,264,12.0,28.0,44,-99.99,,,-99.99,,2013-02-01 05:22:00,
2013-02-01 00:32:00,30.0,11.0,29.83,West,264,12.0,28.0,44,-99.99,,,-99.99,,2013-02-01 05:32:00,
2013-02-01 00:42:00,30.0,11.0,29.83,West,264,12.0,28.0,44,-99.99,,,-99.99,,2013-02-01 05:42:00,
2013-02-01 00:52:00,30.0,11.0,29.83,West,264,12.0,28.0,44,-99.99,,,-99.99,,2013-02-01 05:52:00,
2013-02-01 01:00:00,30.0,11.0,29.83,WSW,247,9.0,20.0,46,-99.99,,,-99.99,,2013-02-01 06:00:00,
2013-02-01 01:22:00,30.0,11.0,29.83,WSW,247,9.0,20.0,46,-99.99,,,-99.99,,2013-02-01 06:22:00,
2013-02-01 01:32:00,30.0,11.0,29.83,WSW,247,9.0,20.0,46,-99.99,,,-99.99,,2013-02-01 06:32:00,
2013-02-01 01:42:00,30.0,11.0,29.83,WSW,247,9.0,20.0,46,-99.99,,,-99.99,,2013-02-01 06:42:00,
2013-02-01 01:52:00,30.0,11.0,29.83,WSW,247,9.0,20.0,46,-99.99,,,-99.99,,2013-02-01 06:52:00,
2013-02-01 02:00:00,29.0,10.0,29.83,SW,236,11.0,21.0,45,-99.99,,,-99.99,,2013-02-01 07:00:00,
2013-02-01 02:22:00,29.0,10.0,29.83,SW,236,11.0,21.0,45,-99.99,,,-99.99,,2013-02-01 07:22:00,
2013-02-01 02:32:00,29.0,10.0,29.83,SW,236,11.0,21.0,45,-99.99,,,-99.99,,2013-02-01 07:32:00,
2013-02-01 02:42:00,29.0,10.0,29.83,SW,236,11.0,21.0,45,-99.99,,,-99.99,,2013-02-01 07:42:00,
2013-02-01 02:52:00,29.0,10.0,29.83,SW,236,11.0,21.0,45,-99.99,,,-99.99,,2013-02-01 07:52:00,
2013-02-01 03:00:00,29.0,12.0,29.83,SW,219,7.0,16.0,50,-99.99,,,-99.99,,2013-02-01 08:00:00,
2013-02-01 03:22:00,29.0,12.0,29.83,SW,219,7.0,16.0,50,-99.99,,,-99.99,,2013-02-01 08:22:00,
2013-02-01 03:32:00,29.0,12.0,29.83,SW,219,7.0,16.0,50,-99.99,,,-99.99,,2013-02-01 08:32:00,
2013-02-01 03:42:00,29.0,12.0,29.83,SW,219,7.0,16.0,50,-99.99,,,-99.99,,2013-02-01 08:42:00,
2013-02-01 03:52:00,29.0,12.0,29.83,SW,219,7.0,16.0,50,-99.99,,,-99.99,,2013-02-01 08:52:00,
2013-02-01 05:00:00,29.0,12.0,29.83,SW,224,6.0,19.0,51,-99.99,,,-99.99,,2013-02-01 10:00:00,
2013-02-01 05:21:00,29.0,12.0,29.83,SW,224,6.0,19.0,51,-99.99,,,-99.99,,2013-02-01 10:21:00,
2013-02-01 05:32:00,29.0,12.0,29.83,SW,224,6.0,19.0,51,-99.99,,,-99.99,,2013-02-01 10:32:00,
2013-02-01 05:43:00,29.0,12.0,29.83,SW,224,6.0,19.0,51,-99.99,,,-99.99,,2013-02-01 10:43:00,
2013-02-01 05:53:00,29.0,12.0,29.83,SW,224,6.0,19.0,51,-99.99,,,-99.99,,2013-02-01 10:53:00,
2013-02-01 06:00:00,28.0,13.0,29.83,SW,236,6.0,12.0,52,-99.99,,,-99.99,,2013-02-01 11:00:00,
2013-02-01 06:22:00,28.0,13.0,29.83,SW,236,6.0,12.0,52,-99.99,,,-99.99,,2013-02-01 11:22:00,
2013-02-01 06:32:00,28.0,13.0,29.83,SW,236,6.0,12.0,52,-99.99,,,-99.99,,2013-02-01 11:32:00,
2013-02-01 06:42:00,28.0,13.0,29.83,SW,236,6.0,12.0,52,-99.99,,,-99.99,,2013-02-01 11:42:00,
2013-02-01 06:53:00,28.0,13.0,29.83,SW,236,6.0,12.0,52,-99.99,,,-99.99,,2013-02-01 11:53:00,
2013-02-01 07:00:00,29.0,14.0,29.85,WNW,290,3.0,11.0,54,-99.99,,,-99.99,,2013-02-01 12:00:00,
2013-02-01 07:23:00,29.0,14.0,29.85,WNW,290,3.0,11.0,54,-99.99,,,-99.99,,2013-02-01 12:23:00,
2013-02-01 07:32:00,29.0,14.0,29.85,WNW,290,3.0,11.0,54,-99.99,,,-99.99,,2013-02-01 12:32:00,
2013-02-01 07:42:00,29.0,14.0,29.85,WNW,290,3.0,11.0,54,-99.99,,,-99.99,,2013-02-01 12:42:00,
2013-02-01 07:52:00,29.0,14.0,29.85,WNW,290,3.0,11.0,54,-99.99,,,-99.99,,2013-02-01 12:52:00,
2013-02-01 08:00:00,30.0,14.0,29.83,WNW,292,6.0,7.0,51,-99.99,,,-99.99,,2013-02-01 13:00:00,
2013-02-01 08:22:00,30.0,14.0,29.83,WNW,292,6.0,7.0,51,-99.99,,,-99.99,,2013-02-01 13:22:00,
2013-02-01 08:33:00,30.0,14.0,29.83,WNW,292,6.0,7.0,51,-99.99,,,-99.99,,2013-02-01 13:33:00,
2013-02-01 08:43:00,30.0,14.0,29.83,WNW,292,6.0,7.0,51,-99.99,,,-99.99,,2013-02-01 13:43:00,
2013-02-01 08:53:00,30.0,14.0,29.83,WNW,292,6.0,7.0,51,-99.99,,,-99.99,,2013-02-01 13:53:00,
2013-02-01 09:00:00,30.0,15.0,29.85,WSW,258,12.0,22.0,53,-99.99,,,-99.99,,2013-02-01 14:00:00,
2013-02-01 09:22:00,30.0,15.0,29.85,WSW,258,12.0,22.0,53,-99.99,,,-99.99,,2013-02-01 14:22:00,
2013-02-01 09:32:00,30.0,15.0,29.85,WSW,258,12.0,22.0,53,-99.99,,,-99.99,,2013-02-01 14:32:00,
2013-02-01 09:42:00,30.0,15.0,29.85,WSW,258,12.0,22.0,53,-99.99,,,-99.99,,2013-02-01 14:42:00,
2013-02-01 09:53:00,30.0,15.0,29.85,WSW,258,12.0,22.0,53,-99.99,,,-99.99,,2013-02-01 14:53:00,
2013-02-01 10:00:00,30.0,16.0,29.85,WNW,288,16.0,22.0,56,-99.99,,,-99.99,,2013-02-01 15:00:00,
2013-02-01 10:22:00,30.0,16.0,29.85,WNW,288,16.0,22.0,56,-99.99,,,-99.99,,2013-02-01 15:22:00,
2013-02-01 10:33:00,30.0,16.0,29.85,WNW,288,16.0,22.0,56,-99.99,,,-99.99,,2013-02-01 15:33:00,
2013-02-01 10:42:00,30.0,16.0,29.85,WNW,288,16.0,22.0,56,-99.99,,,-99.99,,2013-02-01 15:42:00,
2013-02-01 10:52:00,30.0,16.0,29.85,WNW,288,16.0,22.0,56,-99.99,,,-99.99,,2013-02-01 15:52:00,
2013-02-01 11:00:00,28.0,17.0,29.85,NW,310,19.0,32.0,66,-99.99,,,-99.99,,2013-02-01 16:00:00,
2013-02-01 11:22:00,28.0,17.0,29.85,NW,310,19.0,32.0,66,-99.99,,,-99.99,,2013-02-01 16:22:00,
2013-02-01 11:33:00,28.0,17.0,29.85,NW,310,19.0,32.0,66,-99.99,,,-99.99,,2013-02-01 16:33:00,
2013-02-01 11:43:00,28.0,17.0,29.85,NW,310,19.0,32.0,66,-99.99,,,-99.99,,2013-02-01 16:43:00,
2013-02-01 11:53:00,28.0,17.0,29.85,NW,310,19.0,32.0,66,-99.99,,,-99.99,,2013-02-01 16:53:00,
2013-02-01 12:00:00,30.0,8.0,29.85,WNW,289,20.0,31.0,40,-99.99,,,-99.99,,2013-02-01 17:00:00,
2013-02-01 12:22:00,30.0,8.0,29.85,WNW,289,20.0,31.0,40,-99.99,,,-99.99,,2013-02-01 17:22:00,
2013-02-01 12:32:00,30.0,8.0,29.85,WNW,289,20.0,31.0,40,-99.99,,,-99.99,,2013-02-01 17:32:00,
2013-02-01 12:42:00,30.0,8.0,29.85,WNW,289,20.0,31.0,40,-99.99,,,-99.99,,2013-02-01 17:42:00,
2013-02-01 12:53:00,30.0,8.0,29.85,WNW,289,20.0,31.0,40,-99.99,,,-99.99,,2013-02-01 17:53:00,
2013-02-01 13:00:00,30.0,5.0,29.88,NW,306,25.0,34.0,35,-99.99,,,-99.99,,2013-02-01 18:00:00,
2013-02-01 13:23:00,30.0,5.0,29.88,NW,306,25.0,34.0,35,-99.99,,,-99.99,,2013-02-01 18:23:00,
2013-02-01 13:33:00,30.0,5.0,29.88,NW,306,25.0,34.0,35,-99.99,,,-99.99,,2013-02-01 18:33:00,
2013-02-01 13:42:00,30.0,5.0,29.88,NW,306,25.0,34.0,35,-99.99,,,-99.99,,2013-02-01 18:42:00,
2013-02-01 13:53:00,30.0,5.0,29.88,NW,306,25.0,34.0,35,-99.99,,,-99.99,,2013-02-01 18:53:00,
2013-02-01 14:00:00,32.0,7.0,29.88,WNW,288,24.0,34.0,35,-99.99,,,-99.99,,2013-02-01 19:00:00,
2013-02-01 14:22:00,32.0,7.0,29.88,WNW,288,24.0,34.0,35,-99.99,,,-99.99,,2013-02-01 19:22:00,
2013-02-01 14:32:00,32.0,7.0,29.88,WNW,288,24.0,34.0,35,-99.99,,,-99.99,,2013-02-01 19:32:00,
2013-02-01 14:42:00,32.0,7.0,29.88,WNW,288,24.0,34.0,35,-99.99,,,-99.99,,2013-02-01 19:42:00,
2013-02-01 14:52:00,32.0,7.0,29.88,WNW,288,24.0,34.0,35,-99.99,,,-99.99,,2013-02-01 19:52:00,
2013-02-01 15:00:00,29.0,10.0,29.94,West,271,18.0,33.0,44,-99.99,,,-99.99,,2013-02-01 20:00:00,
2013-02-01 15:22:00,29.0,10.0,29.94,West,271,18.0,33.0,44,-99.99,,,-99.99,,2013-02-01 20:22:00,
2013-02-01 15:32:00,29.0,10.0,29.94,West,271,18.0,33.0,44,-99.99,,,-99.99,,2013-02-01 20:32:00,
2013-02-01 15:42:00,29.0,10.0,29.94,West,271,18.0,33.0,44,-99.99,,,-99.99,,2013-02-01 20:42:00,
2013-02-01 15:52:00,29.0,10.0,29.94,West,271,18.0,33.0,44,-99.99,,,-99.99,,2013-02-01 20:52:00,
2013-02-01 16:00:00,30.0,4.0,29.97,WNW,296,18.0,35.0,33,-99.99,,,-99.99,,2013-02-01 21:00:00,
2013-02-01 16:22:00,30.0,4.0,29.97,WNW,296,18.0,35.0,33,-99.99,,,-99.99,,2013-02-01 21:22:00,
2013-02-01 16:32:00,30.0,4.0,29.97,WNW,296,18.0,35.0,33,-99.99,,,-99.99,,2013-02-01 21:32:00,
2013-02-01 16:42:00,30.0,4.0,29.97,WNW,296,18.0,35.0,33,-99.99,,,-99.99,,2013-02-01 21:42:00,
2013-02-01 16:53:00,30.0,4.0,29.97,WNW,296,18.0,35.0,33,-99.99,,,-99.99,,2013-02-01 21:53:00,
2013-02-01 17:00:00,29.0,6.0,30.03,West,275,12.0,29.0,36,-99.99,,,-99.99,,2013-02-01 22:00:00,
2013-02-01 17:22:00,29.0,6.0,30.03,West,275,12.0,29.0,36,-99.99,,,-99.99,,2013-02-01 22:22:00,
2013-02-01 17:32:00,29.0,6.0,30.03,West,275,12.0,29.0,36,-99.99,,,-99.99,,2013-02-01 22:32:00,
2013-02-01 17:42:00,29.0,6.0,30.03,West,275,12.0,29.0,36,-99.99,,,-99.99,,2013-02-01 22:42:00,
2013-02-01 17:52:00,29.0,6.0,30.03,West,275,12.0,29.0,36,-99.99,,,-99.99,,2013-02-01 22:52:00,
2013-02-01 18:00:00,29.0,4.0,30.06,WNW,286,14.0,26.0,35,-99.99,,,-99.99,,2013-02-01 23:00:00,
2013-02-01 18:22:00,29.0,4.0,30.06,WNW,286,14.0,26.0,35,-99.99,,,-99.99,,2013-02-01 23:22:00,
2013-02-01 18:32:00,29.0,4.0,30.06,WNW,286,14.0,26.0,35,-99.99,,,-99.99,,2013-02-01 23:32:00,
2013-02-01 18:42:00,29.0,4.0,30.06,WNW,286,14.0,26.0,35,-99.99,,,-99.99,,2013-02-01 23:42:00,
2013-02-01 18:52:00,29.0,4.0,30.06,WNW,286,14.0,26.0,35,-99.99,,,-99.99,,2013-02-01 23:52:00,
2013-02-01 19:00:00,28.0,7.0,30.09,West,268,14.0,22.0,41,-99.99,,,-99.99,,2013-02-02 00:00:00,
2013-02-01 19:22:00,28.0,7.0,30.09,West,268,14.0,22.0,41,-99.99,,,-99.99,,2013-02-02 00:22:00,
2013-02-01 19:32:00,28.0,7.0,30.09,West,268,14.0,22.0,41,-99.99,,,-99.99,,2013-02-02 00:32:00,
2013-02-01 19:42:00,28.0,7.0,30.09,West,268,14.0,22.0,41,-99.99,,,-99.99,,2013-02-02 00:42:00,
2013-02-01 19:52:00,28.0,7.0,30.09,West,268,14.0,22.0,41,-99.99,,,-99.99,,2013-02-02 00:52:00,
2013-02-01 20:00:00,27.0,7.0,30.15,WNW,301,19.0,28.0,42,-99.99,,,-99.99,,2013-02-02 01:00:00,
2013-02-01 20:22:00,27.0,7.0,30.15,WNW,301,19.0,28.0,42,-99.99,,,-99.99,,2013-02-02 01:22:00,
2013-02-01 20:32:00,27.0,7.0,30.15,WNW,301,19.0,28.0,42,-99.99,,,-99.99,,2013-02-02 01:32:00,
2013-02-01 20:42:00,27.0,7.0,30.15,WNW,301,19.0,28.0,42,-99.99,,,-99.99,,2013-02-02 01:42:00,
2013-02-01 20:52:00,27.0,7.0,30.15,WNW,301,19.0,28.0,42,-99.99,,,-99.99,,2013-02-02 01:52:00,
2013-02-01 21:00:00,26.0,5.0,30.18,West,276,11.0,25.0,41,-99.99,,,-99.99,,2013-02-02 02:00:00,
2013-02-01 21:22:00,26.0,5.0,30.18,West,276,11.0,25.0,41,-99.99,,,-99.99,,2013-02-02 02:22:00,
2013-02-01 21:32:00,26.0,5.0,30.18,West,276,11.0,25.0,41,-99.99,,,-99.99,,2013-02-02 02:32:00,
2013-02-01 21:42:00,26.0,5.0,30.18,West,276,11.0,25.0,41,-99.99,,,-99.99,,2013-02-02 02:42:00,
2013-02-01 21:52:00,26.0,5.0,30.18,West,276,11.0,25.0,41,-99.99,,,-99.99,,2013-02-02 02:52:00,
2013-02-01 22:00:00,25.0,6.0,30.18,West,272,11.0,23.0,44,-99.99,,,-99.99,,2013-02-02 03:00:00,
2013-02-01 22:22:00,25.0,6.0,30.18,West,272,11.0,23.0,44,-99.99,,,-99.99,,2013-02-02 03:22:00,
2013-02-01 22:32:00,25.0,6.0,30.18,West,272,11.0,23.0,44,-99.99,,,-99.99,,2013-02-02 03:32:00,
2013-02-01 22:42:00,25.0,6.0,30.18,West,272,11.0,23.0,44,-99.99,,,-99.99,,2013-02-02 03:42:00,
2013-02-01 22:52:00,25.0,6.0,30.18,West,272,11.0,23.0,44,-99.99,,,-99.99,,2013-02-02 03:52:00,
2013-02-01 23:00:00,24.0,5.0,30.21,West,276,11.0,18.0,45,-99.99,,,-99.99,,2013-02-02 04:00:00,
2013-02-01 23:22:00,24.0,5.0,30.21,West,276,11.0,18.0,45,-99.99,,,-99.99,,2013-02-02 04:22:00,
2013-02-01 23:33:00,24.0,5.0,30.21,West,276,11.0,18.0,45,-99.99,,,-99.99,,2013-02-02 04:33:00,
2013-02-01 23:42:00,24.0,5.0,30.21,West,276,11.0,18.0,45,-99.99,,,-99.99,,2013-02-02 04:42:00,
2013-02-01 23:52:00,24.0,5.0,30.21,West,276,11.0,18.0,45,-99.99,,,-99.99,,2013-02-02 04:52:00,